Coolidge Muni, Coolidge, AZ

1:11 AM MST on December 13, 2019 (GMT -0700)
Coolidge Muni, Coolidge

Weather History for KP08 - September, 2019

Change the Weather History Date:

Saturday, September 14, 2019

  Actual Average (KCGZ) Record (KCGZ)
Temperature  
Mean Temperature 91 °F -  
Max Temperature 100 °F 96 °F 109 °F (2000)
Min Temperature 82 °F 69 °F 62 °F (2005)
Cooling Degree Days 26    
Growing Degree Days 41 (Base 50)    
Moisture  
Dew Point 52 °F    
Average Humidity 29    
Maximum Humidity 37    
Minimum Humidity 18    
Precipitation  
Precipitation 0.00 in - - ()
Sea Level Pressure  
Sea Level Pressure 29.97 in    
Wind  
Wind Speed 11 mph ()    
Max Wind Speed 31 mph    
Max Gust Speed 41 mph    
Visibility 9.9 miles    
Events Thunderstorm    
Averages and records for this station are not official NWS values.
T = Trace of Precipitation, MM = Missing Value Source: Averaged Metar Reports

Daily Weather History Graph

Daily Weather History Graph

Search for Another Location

Airport or City:

Astronomy

Sep. 14, 2019 Rise Set
Actual Time 6:08 AM MST 6:33 PM MST
Civil Twilight 5:43 AM MST 6:58 PM MST
Nautical Twilight 5:14 AM MST 7:27 PM MST
Astronomical Twilight 4:45 AM MST 7:56 PM MST
Moon 7:15 PM MST (9/14) 6:27 AM MST (9/14)
Length of Visible Light 13h 14m
Length of Day
12h 24m
Full, 100% of the Moon is Illuminated
Sep 14
Full
Sep 21
Last Quarter
Sep 28
New
Oct 5
First Quarter
Oct 13
Full

Hourly Weather History & Observations

Time (MST) Temp. Heat Index Dew Point Humidity Pressure Visibility Wind Dir Wind Speed Gust Speed Precip Events Conditions
12:15 AM 91.4 °F - 50.0 °F 24% 29.93 in 10.0 mi South 16.1 mph - N/A   Clear
12:35 AM 91.4 °F 89.1 °F 53.6 °F 28% 29.94 in 10.0 mi South 19.6 mph 26.5 mph N/A   Clear
12:55 AM 91.4 °F 89.1 °F 53.6 °F 28% 29.94 in 10.0 mi SSE 16.1 mph 23.0 mph N/A   Clear
1:15 AM 89.6 °F 87.3 °F 53.6 °F 29% 29.95 in 10.0 mi South 15.0 mph - N/A   Clear
1:35 AM 89.6 °F 87.3 °F 53.6 °F 29% 29.95 in 10.0 mi South 13.8 mph - N/A   Clear
1:55 AM 87.8 °F 85.7 °F 53.6 °F 31% 29.96 in 10.0 mi SE 4.6 mph - N/A   Clear
2:15 AM 87.8 °F 85.7 °F 53.6 °F 31% 29.96 in 10.0 mi East 5.8 mph - N/A   Clear
2:35 AM 86.0 °F 84.2 °F 53.6 °F 33% 29.96 in 10.0 mi SE 5.8 mph - N/A   Clear
2:55 AM 86.0 °F 84.2 °F 53.6 °F 33% 29.96 in 10.0 mi ESE 8.1 mph - N/A   Clear
3:15 AM 86.0 °F 84.2 °F 53.6 °F 33% 29.96 in 10.0 mi East 11.5 mph - N/A   Clear
3:30 AM 86.0 °F 84.2 °F 53.6 °F 33% 29.97 in 10.0 mi East 9.2 mph - N/A   Clear
3:50 AM 86.0 °F 84.2 °F 53.6 °F 33% 29.96 in 10.0 mi East 10.4 mph - N/A   Clear
4:10 AM 87.8 °F 85.7 °F 53.6 °F 31% 29.96 in 10.0 mi East 11.5 mph - N/A   Clear
4:35 AM 86.0 °F - 51.8 °F 31% 29.97 in 10.0 mi East 8.1 mph - N/A   Clear
4:55 AM 86.0 °F - 51.8 °F 31% 29.97 in 10.0 mi East 8.1 mph - N/A   Clear
5:15 AM 84.2 °F - 51.8 °F 33% 29.98 in 10.0 mi ESE 6.9 mph - N/A   Clear
5:35 AM 84.2 °F 82.8 °F 53.6 °F 35% 29.99 in 10.0 mi East 6.9 mph - N/A   Clear
5:55 AM 82.4 °F - 51.8 °F 35% 29.99 in 10.0 mi ESE 5.8 mph - N/A   Clear
6:15 AM 84.2 °F - 51.8 °F 33% 29.99 in 10.0 mi ESE 5.8 mph - N/A   Clear
6:35 AM 84.2 °F - 51.8 °F 33% 29.99 in 10.0 mi ESE 4.6 mph - N/A   Scattered Clouds
6:55 AM 84.2 °F - 51.8 °F 33% 29.99 in 10.0 mi Calm Calm - N/A   Partly Cloudy
7:15 AM 84.2 °F 82.8 °F 53.6 °F 35% 30.00 in 10.0 mi East 9.2 mph - N/A   Clear
7:35 AM 86.0 °F 84.2 °F 53.6 °F 33% 30.01 in 10.0 mi East 9.2 mph - N/A   Clear
7:55 AM 87.8 °F 85.7 °F 53.6 °F 31% 30.01 in 10.0 mi ESE 9.2 mph - N/A   Clear
8:15 AM 87.8 °F 85.7 °F 53.6 °F 31% 30.02 in 10.0 mi East 6.9 mph 16.1 mph N/A   Clear
8:35 AM 89.6 °F 87.3 °F 53.6 °F 29% 30.02 in 10.0 mi NE 6.9 mph - N/A   Clear
8:55 AM 91.4 °F 89.1 °F 53.6 °F 28% 30.02 in 10.0 mi East 10.4 mph - N/A   Clear
9:15 AM 91.4 °F 89.1 °F 53.6 °F 28% 30.02 in 10.0 mi East 8.1 mph - N/A   Clear
9:35 AM 93.2 °F - 51.8 °F 24% 30.01 in 10.0 mi East 10.4 mph 16.1 mph N/A   Clear
9:55 AM 95.0 °F - 51.8 °F 23% 30.01 in 10.0 mi East 8.1 mph - N/A   Clear
10:15 AM 95.0 °F - 51.8 °F 23% 30.00 in 10.0 mi East 8.1 mph 17.3 mph N/A   Clear
10:35 AM 96.8 °F - 51.8 °F 22% 29.99 in 10.0 mi East 9.2 mph 16.1 mph N/A   Clear
10:55 AM 96.8 °F - 48.2 °F 19% 29.98 in 10.0 mi East 8.1 mph 15.0 mph N/A   Clear
11:15 AM 98.6 °F - 50.0 °F 19% 29.98 in 10.0 mi ESE 12.7 mph 23.0 mph N/A   Clear
11:35 AM 98.6 °F - 50.0 °F 19% 29.97 in 10.0 mi East 16.1 mph 24.2 mph N/A   Clear
11:55 AM 98.6 °F - 50.0 °F 19% 29.97 in 10.0 mi East 13.8 mph 20.7 mph N/A   Clear
12:15 PM 100.4 °F - 50.0 °F 18% 29.96 in 10.0 mi East 15.0 mph 23.0 mph N/A   Clear
12:35 PM 100.4 °F - 50.0 °F 18% 29.95 in 10.0 mi East 11.5 mph - N/A   Clear
12:55 PM 98.6 °F - 50.0 °F 19% 29.94 in 10.0 mi SSE 8.1 mph 15.0 mph N/A   Clear
1:15 PM 100.4 °F - 50.0 °F 18% 29.93 in 10.0 mi East 16.1 mph - N/A   Clear
1:55 PM 98.6 °F - 50.0 °F 19% 29.92 in 10.0 mi ESE 10.4 mph - N/A   Partly Cloudy
2:15 PM 98.6 °F - 50.0 °F 19% 29.91 in 10.0 mi SE 9.2 mph 24.2 mph N/A   Clear
2:35 PM 100.4 °F - 50.0 °F 18% 29.90 in 10.0 mi ESE 9.2 mph - N/A   Clear
2:50 PM 100.4 °F - 50.0 °F 18% 29.90 in 10.0 mi SE 12.7 mph 19.6 mph N/A   Clear
3:15 PM 98.6 °F - 51.8 °F 21% 29.90 in 10.0 mi ESE 15.0 mph 24.2 mph N/A   Partly Cloudy
3:35 PM 98.6 °F - 51.8 °F 21% 29.91 in 10.0 mi East 18.4 mph 26.5 mph N/A   Clear
3:55 PM 95.0 °F - 51.8 °F 23% 29.93 in 8.0 mi East 26.5 mph 34.5 mph N/A   Mostly Cloudy
4:15 PM 93.2 °F 90.8 °F 53.6 °F 26% 29.94 in 7.0 mi ENE 26.5 mph 40.3 mph N/A Thunderstorm Scattered Clouds
4:30 PM 91.4 °F 89.1 °F 53.6 °F 28% 29.95 in 10.0 mi East 29.9 mph 36.8 mph N/A   Scattered Clouds
4:55 PM 89.6 °F 87.3 °F 53.6 °F 29% 29.96 in 9.0 mi East 23.0 mph 32.2 mph N/A   Light Drizzle
5:15 PM 89.6 °F - 50.0 °F 26% 29.97 in 9.0 mi ENE 31.1 mph 38.0 mph N/A   Partly Cloudy
5:35 PM 86.0 °F - 51.8 °F 31% 29.98 in 10.0 mi East 24.2 mph 41.4 mph N/A   Partly Cloudy
5:55 PM 86.0 °F - 51.8 °F 31% 29.98 in 10.0 mi East 21.9 mph 33.4 mph N/A   Scattered Clouds
6:15 PM 86.0 °F - 51.8 °F 31% 29.96 in 10.0 mi East 19.6 mph 31.1 mph N/A   Scattered Clouds
6:35 PM 86.0 °F 84.2 °F 53.6 °F 33% 29.96 in 10.0 mi East 17.3 mph 25.3 mph N/A   Mostly Cloudy
6:55 PM 84.2 °F 82.8 °F 53.6 °F 35% 29.95 in 10.0 mi ESE 21.9 mph 31.1 mph N/A   Scattered Clouds
7:15 PM 84.2 °F 82.8 °F 53.6 °F 35% 29.93 in 10.0 mi ESE 23.0 mph 33.4 mph N/A   Clear
7:35 PM 84.2 °F 82.8 °F 53.6 °F 35% 29.97 in 10.0 mi Variable 6.9 mph 20.7 mph N/A   Clear
7:55 PM 84.2 °F 82.8 °F 53.6 °F 35% 29.97 in 10.0 mi ENE 5.8 mph - N/A   Clear
8:15 PM 82.4 °F 81.4 °F 53.6 °F 37% 30.00 in 10.0 mi NNE 12.7 mph - N/A   Clear
8:35 PM 84.2 °F 82.8 °F 53.6 °F 35% 30.00 in 10.0 mi NE 17.3 mph - N/A   Partly Cloudy
8:55 PM 84.2 °F 82.8 °F 53.6 °F 35% 30.00 in 10.0 mi NE 16.1 mph - N/A   Mostly Cloudy
9:15 PM 84.2 °F 82.8 °F 53.6 °F 35% 29.99 in 10.0 mi ENE 15.0 mph - N/A   Mostly Cloudy
9:35 PM 84.2 °F 82.8 °F 53.6 °F 35% 29.99 in 10.0 mi NE 13.8 mph - N/A   Scattered Clouds
9:55 PM 84.2 °F 82.8 °F 53.6 °F 35% 29.99 in 10.0 mi ENE 12.7 mph - N/A   Clear
10:15 PM 82.4 °F 81.4 °F 53.6 °F 37% 29.99 in 10.0 mi ENE 11.5 mph - N/A   Clear
10:35 PM 82.4 °F 81.4 °F 53.6 °F 37% 29.99 in 10.0 mi ENE 10.4 mph - N/A   Clear
10:55 PM 82.4 °F 81.4 °F 53.6 °F 37% 29.99 in 10.0 mi ENE 10.4 mph - N/A   Clear
11:15 PM 82.4 °F 81.4 °F 53.6 °F 37% 29.98 in 10.0 mi ENE 9.2 mph - N/A   Clear
11:20 PM 82.4 °F 81.4 °F 53.6 °F 37% 29.98 in 10.0 mi ENE 10.4 mph - N/A   Clear